Location: Bratislava
(0.0000°N, 17.1167°E)
Time: 03:58:00
(UTC+01:00)

Meteor 1-27 - Pass Details

Date: 24 January 2021
Orbit: 837 x 893 km, 81.3° (Epoch: 06 March)

Event Time Altitude Azimuth Distance (km) Brightness Sun altitude
Exits shadow 19:30:29 24° 20° (NNE) 1,645 5.3 -20.4°
Maximum altitude 19:33:34 52° 85° (E) 1,035 4.2 -21.2°
Drops below altitude 10° 19:38:57 10° 161° (SSE) 2,457 6.6 -22.4°
Sets 19:41:25 0° 165° (SSE) 3,399 7.4 -23.0°
